Location: Campavaglio
(41.1333°N, 9.2333°E)
Time: 00:53:44
(UTC+00:00)

Daily predictions for brighter satellites

Satellite Brightness Start Highest point End
(mag) Time Altitude Azimuth Time Altitude Azimuth Time Altitude Azimuth
USA 215 4.0 00:10:09 38° W 00:10:09 38° W 00:14:18 10° NW
SeaSat 1 3.9 00:04:10 10° N 00:08:06 30° NW 00:08:06 30° NW
Cosmos 1943 Rocket 3.1 00:09:25 40° NW 00:09:25 40° NW 00:14:22 10° N
Cosmos 1607 4.2 00:11:32 63° E 00:11:32 63° E 00:17:22 10° NE
ATLAS 2AS CENTAUR R/B 3.3 00:06:18 10° NW 00:11:46 45° WNW 00:11:46 45° WNW
Cosmos 1461 4.4 00:15:16 39° NNE 00:15:16 39° NNE 00:18:16 10° NNE
Cosmos 2239 Rocket 4.5 00:10:22 10° N 00:16:15 78° NW 00:16:15 78° NW
SL-16 R/B 3.6 00:21:04 30° ESE 00:23:17 40° ENE 00:29:03 10° N
Cosmos 1048 Rocket 4.5 00:22:06 10° NNW 00:26:21 57° N 00:26:21 57° N
Meteor 1-15 Rocket 4.4 00:21:52 10° N 00:27:18 65° ENE 00:27:18 65° ENE
Gbstr 26 Del rocket 4.2 00:31:48 10° NW 00:38:12 58° NNE 00:43:20 10° ESE
BREEZE-M DEB (TANK) 4.1 00:39:13 54° E 00:39:13 54° E 00:48:12 10° ENE
Okean 2 Rocket 4.2 00:34:10 10° N 00:37:10 41° NNE 00:37:10 41° NNE
Cosmos 1656 Rocket 3.9 00:42:15 60° NW 00:42:15 60° NW 00:47:12 10° NNE
Cosmos 1339 Rocket 4.4 00:43:46 82° S 00:44:05 88° E 00:50:32 10° N
ISS -0.9 00:48:19 18° NE 00:48:19 18° NE 00:49:23 10° NE
Helios 1B rocket 3.8 00:43:43 10° NNE 00:46:30 37° NE 00:46:30 37° NE
Cosmos 1867 3.7 00:52:08 65° NW 00:52:08 65° NW 00:57:19 10° NNE
Cosmos 1934 Rocket 4.0 00:46:45 10° NNW 00:52:36 64° W 00:52:36 64° W
UNK 4.3 00:53:30 52° ENE 00:53:30 52° ENE 00:57:47 10° N
RESURS DK-1 4.0 00:50:26 10° NNW 00:52:35 29° NNW 00:52:35 29° NNW
Cosmos 1727 Rocket 4.4 00:54:28 49° SE 00:55:40 57° E 01:01:52 10° NNE
CZ-2D R/B 2.1 00:52:52 10° NNE 00:58:20 74° ESE 00:58:21 74° ESE
ATLAS CENTAUR R/B 2.8 01:02:36 31° NNE 01:02:36 31° NNE 01:04:43 10° NNE
USA 281 3.3 01:09:03 55° WSW 01:09:03 55° WSW 01:15:25 10° NNW
USA 81 4.3 01:10:18 10° NNW 01:14:57 54° WNW 01:14:57 54° WNW
Cosmos 1707 3.8 01:20:58 41° ENE 01:20:58 41° ENE 01:24:10 10° NNE
Meteor 1-21 4.4 01:23:32 53° SSE 01:24:49 71° E 01:30:38 10° NNE
Meteor 2-10 4.0 01:20:35 10° N 01:26:04 81° E 01:27:05 60° SSE
IDEFIX/ARIANE 42P 3.9 01:26:14 10° NNE 01:30:58 33° E 01:33:19 23° SE
Cosmos 1400 Rocket 3.3 01:27:41 10° NNW 01:31:01 56° NNW 01:31:01 56° NNW
Resurs 1-4 Rocket 2.3 01:27:16 10° N 01:32:23 53° WNW 01:32:45 52° W
Cosmos 2369 Rocket 4.0 01:31:09 16° WNW 01:32:40 18° NW 01:36:27 10° N
ADEOS II 2.1 01:29:46 10° NNE 01:35:02 73° ESE 01:36:09 54° SSE
Cosmos 1975 Rocket 4.0 01:36:21 36° SE 01:37:19 42° E 01:41:27 10° NNE
Cosmos 1153 Rocket 4.5 01:32:45 10° NNW 01:39:06 71° W 01:40:57 48° SSW
Meteor 2-20 Rocket 4.4 01:39:36 51° SSW 01:41:19 81° W 01:47:31 10° N
CZ-3B R/B 4.3 01:28:49 27° SW 01:42:12 77° NW 01:47:54 10° NE
SL-19 R/B 4.3 01:38:47 10° N 01:44:29 62° WNW 01:45:37 51° WSW
Tianhe-1 2.9 01:46:44 29° E 01:46:44 29° E 01:48:25 10° E
Lacrosse 5 2.0 01:45:07 52° SSE 01:45:52 58° SE 01:50:52 10° NE
Gblst 52 Del rocket 4.1 01:40:37 10° WNW 01:46:43 78° SW 01:52:16 10° SE
ARGOS Delta rocket 3.6 01:42:32 10° N 01:47:03 78° WNW 01:47:33 68° SW
Cosmos 1378 Rocket 4.4 01:51:11 35° WNW 01:51:11 35° WNW 01:54:48 10° N
Cosmos 1470 3.2 01:47:16 10° NNW 01:50:26 51° NW 01:50:26 51° NW
Cosmos 2016 Rocket 4.5 01:48:10 10° N 01:54:24 59° E 02:00:28 10° SSE
BREEZE-M DEB (TANK) 3.2 01:53:33 47° SSW 01:54:58 70° SE 02:07:52 10° ENE
Cosmos 1459 Rocket 3.9 01:51:04 10° N 01:57:24 89° W 02:01:05 26° S
Okean 1 Rocket 3.6 01:56:33 10° NNW 02:00:21 41° WNW 02:00:21 41° WNW
Cosmos 1269 Rocket 4.2 01:56:00 10° NNW 02:01:05 49° WSW 02:01:40 46° SW
IRS-1D 3.5 01:57:12 10° N 02:02:32 77° WNW 02:04:22 42° SSW
Cosmos 2173 Rocket 3.9 01:57:00 10° N 02:03:09 79° W 02:06:41 27° S
CZ-4B R/B 4.4 01:59:45 10° NNE 02:04:26 43° E 02:07:41 19° SSE
Cosmos 1697 Rocket 4.3 02:00:22 12° SSE 02:04:33 27° ESE 02:09:12 10° NE
Cosmos 1726 2.9 02:01:48 10° NNW 02:04:34 38° WNW 02:04:34 38° WNW
Cosmos 44 Rocket 3.3 02:01:31 10° NW 02:06:44 73° WSW 02:11:47 10° SSE
SL-16 R/B 3.2 02:06:08 33° WSW 02:06:53 34° W 02:12:31 10° NNW
COSMOS 2455 3.6 02:01:58 10° NNW 02:07:51 54° NE 02:13:43 10° SE
Meteor 1-28 Rocket 3.0 02:07:32 70° SSW 02:07:53 80° WSW 02:11:36 10° NNW
Cosmos 1802 Rocket 3.9 02:03:44 10° N 02:09:55 88° W 02:14:33 19° S
Cosmos 1626 3.3 02:13:44 21° SSE 02:15:43 38° E 02:19:10 10° NNE
Cosmos 2100 Rocket 4.1 02:12:26 10° NNW 02:18:32 56° W 02:21:53 27° SSW
Cosmos 2227 Rocket 3.3 02:14:44 10° NNW 02:20:09 44° ENE 02:25:31 10° SE
GP-B 3.3 02:16:55 10° N 02:21:22 72° E 02:24:16 21° S
CZ-2C R/B 4.4 02:17:11 10° NE 02:21:22 25° E 02:25:35 10° SSE
Cosmos 1953 2.3 02:18:48 10° N 02:22:47 81° E 02:25:13 23° SSE
ISS -1.0 02:21:33 10° NW 02:23:39 15° N 02:25:47 10° NNE
Cosmos 2297 Rocket 2.7 02:18:47 10° NNW 02:24:25 63° ENE 02:30:01 10° SE
Gbstr 26 Del rocket 3.9 02:19:49 10° WNW 02:25:02 35° SW 02:29:19 10° SSE
Cosmos 2123 Rocket 3.9 02:23:04 24° SSW 02:26:59 78° W 02:33:13 10° N
BREEZE-M R/B 4.2 02:22:18 10° WNW 02:27:09 57° SW 02:37:37 10° SE
ADEOS Rocket 3.4 02:22:13 13° S 02:28:30 64° W 02:36:07 10° NNW
Spot 1 4.2 02:30:01 26° S 02:32:19 57° W 02:36:56 10° NNW
Cosmos 371 Rocket 3.2 02:30:01 28° SSW 02:32:35 88° WNW 02:37:30 10° NNE
Cosmos 1025 Rocket 2.9 02:31:16 26° S 02:33:41 89° NW 02:38:02 10° N
Cosmos 332 Rocket 4.3 02:30:40 19° S 02:34:07 59° ESE 02:38:56 10° NNE
OAO 3 Rocket 3.8 02:33:09 31° SW 02:34:26 37° S 02:38:59 10° ESE
Cosmos 1544 Rocket 3.6 02:31:31 10° N 02:35:55 83° E 02:40:18 10° S
IRS-P3 4.1 02:30:42 10° NNE 02:36:04 80° WNW 02:39:42 21° SSW
CZ-2D R/B 4.0 02:34:32 10° NNW 02:37:42 16° WNW 02:39:41 13° W
CZ-2C R/B 2.0 02:40:56 24° S 02:40:59 24° S 02:43:42 10° ESE
Lacrosse 4 Rocket 3.6 02:37:28 10° SSE 02:41:02 24° ESE 02:44:37 10° NE
ARIANE 5 R/B 2.5 02:40:26 10° NNE 02:45:38 83° WNW 02:49:42 16° SSW
Cosmos 1455 Rocket 3.4 02:43:03 10° NNW 02:47:09 43° W 02:49:31 22° SSW
CZ-4C R/B 4.2 02:45:49 25° SW 02:47:38 36° W 02:51:39 10° NNW
CZ-2D R/B 3.6 02:45:17 10° NNE 02:49:39 81° ESE 02:53:32 13° S
Cosmos 1536 Rocket 3.7 02:46:24 12° S 02:50:20 77° E 02:54:46 10° N
Cosmos 2219 3.2 02:49:44 10° NNW 02:55:27 84° WSW 03:01:11 10° SSE
Cosmos 1674 3.7 02:56:39 22° WSW 02:58:03 29° WNW 03:01:25 10° NNW
CZ-2C R/B 3.6 02:56:03 10° NNE 02:59:56 51° E 03:03:50 10° S
Cosmos 1140 Rocket 4.4 02:55:50 10° N 03:00:55 53° ENE 03:06:01 10° SE
USA 129 1.7 03:01:39 17° S 03:03:24 67° W 03:05:42 10° NNW
Cosmos 1315 Rocket 4.2 03:00:28 10° NW 03:03:29 21° W 03:04:35 19° WSW
IDEFIX/ARIANE 42P 3.6 03:05:53 10° N 03:10:27 31° WNW 03:14:07 14° WSW
Timation 2 Rocket 3.8 03:06:21 10° NNW 03:12:16 65° WSW 03:18:12 10° SSE
Cosmos 1300 2.7 03:09:29 10° N 03:13:18 83° E 03:17:06 10° S
ADEOS II 3.9 03:11:07 10° NNW 03:14:05 15° WNW 03:17:02 10° W
TSX-5 3.6 03:11:36 10° NNW 03:14:59 88° ENE 03:19:02 10° SSE
Cosmos 2360 4.3 03:10:19 10° SSW 03:16:02 90° WNW 03:21:49 10° NNE
USA 276 2.6 03:14:03 16° WSW 03:16:21 51° NNW 03:19:27 10° NE
Cosmos 614 Rocket 4.1 03:13:01 10° NNW 03:17:54 48° WSW 03:22:47 10° S
Cosmos 1908 4.4 03:15:05 10° NW 03:18:16 24° W 03:21:01 12° SW
Cosmos 1624 Rocket 4.2 03:14:20 10° SSW 03:19:36 79° ESE 03:24:58 10° NNE
Cosmos 2228 3.9 03:17:15 10° N 03:21:25 52° E 03:25:35 10° SSE
Tianhe-1 1.0 03:18:37 10° W 03:21:47 85° SSW 03:24:54 10° E
BREEZE-M DEB (TANK) 1.6 03:19:51 14° WSW 03:22:33 64° NNW 03:24:44 10° NE
SL-14 R/B 3.7 03:19:53 11° SSW 03:23:25 42° WNW 03:27:09 10° N
Cosmos 407 Rocket 3.5 03:19:57 10° NNW 03:25:18 83° WSW 03:30:39 10° SSE
SL-08 R/B 3.9 03:22:30 10° SSW 03:26:50 34° W 03:31:08 10° NNW
Lacrosse 5 3.2 03:24:37 10° W 03:29:06 30° NNW 03:33:36 10° NNE
Spot 4 Rocket 4.3 03:24:17 10° N 03:29:17 53° WNW 03:34:17 10° SSW
Cosmos 2263 Rocket 4.5 03:25:22 10° N 03:30:17 30° NE 03:35:12 10° ESE
CZ-3B R/B 4.2 03:29:31 10° S 03:32:03 14° SSE 03:35:38 10° ESE
Cosmos 2285 Rocket 4.1 03:25:45 10° SSW 03:32:07 85° WNW 03:38:35 10° NNE
SL-24 R/B 3.8 03:32:51 10° SSE 03:36:29 84° ENE 03:40:17 10° N
Cosmos 2056 Rocket 3.5 03:34:22 10° SSW 03:39:27 71° WNW 03:44:34 10° NNE
Cosmos 405 2.9 03:41:50 10° N 03:45:23 85° W 03:48:52 10° S
